Location: El Limón
(10.3059°N, 67.6321°W)
Time: 12:04:55
(UTC+00:00)

Nadezhda 2 Rocket - Pass Details

Date: 21 December 2025
Orbit: 946 x 1011 km, 83.0° (Epoch: 12 January)

Event Time Altitude Azimuth Distance (km) Brightness Sun altitude
Rises 22:25:43 0° 355° (N) 3,609 7.3 -3.3°
Reaches altitude 10° 22:28:11 10° 355° (N) 2,668 6.6 -3.9°
Maximum altitude 22:34:18 85° 267° (W) 964 4.6 -5.3°
Drops below altitude 10° 22:40:29 10° 179° (S) 2,705 7.1 -6.7°
Sets 22:43:00 0° 178° (S) 3,662 7.8 -7.3°
